sat.trackr.live / text

‹ back to catalog

STARLINK-3338

NORAD 50812 · 2022-001K

PAYLOAD ACTIVE UNKNOWN

§ Identity

Operator
Country
US
Launch date
2022-01-06
Launch site
AFETR
Launch vehicle
Mass (kg)
RCS (m²)

Purposes: comms

External: N2YO · Heavens-Above · Gunter

§ Orbital elements

Epoch: 2026-05-25T01:52:59.179008Z

Period
95.44 min
Inclination
53.2150°
Eccentricity
0.0000995
Mean motion
15.08835341 rev/d
Perigee alt
539.1 km
Apogee alt
540.4 km
Semi-major
6,917.9 km
B*
2.3655e-5
RAAN
176.3029°
Arg perigee
65.8455°
Mean anomaly
294.2641°
Rev number
24,207

§ Raw data

STARLINK-33381 50812U 22001K   26145.07846272  .00000089  00000+0  23655-4 0  99962 50812  53.2150 176.3029 0000995  65.8455 294.2641 15.08835341242079

JSON: /api/v1/satellites/50812 · /tle

For live sub-satellite position, see the globe view (requires WebGL).

§ Visibility from observer

Set your observer location to see the next 7 days of passes ≥ 10°. The values pass through the URL so the page stays shareable.

No JS? Fill the form by hand. The geolocation button needs JavaScript.